DELTA 1 DEB, 7124

Orbit data source: Space-Track

DELTA 1 DEB, 7124 is space debris in SSO originally from a launch on Tue, 06 Nov 1973 UTC launched from the Air Force Western Test Range (AFWTR). Debris objects in space refer to the collection of defunct objects orbiting the Earth. Examples of debris include non-operational satellites, rocket bodies, and fragments generated from explosions, collisions, or faulty payload assembly.

Loading next visibility...
Identifier
7124, 1973-086CN
Orbit
SSO
Country
Flag of USUS
Related business
Manufacturer
Unknown
Mission
Spacecraft
Bus & Motor
Unknown
Mass
Unknown
Launch date (UTC)
1973-11-06 (52 years ago)
Launch vehicle
Unknown
Launch site
Air Force Western Test Range (AFWTR)
Object type
Payload
Rocket body
Debris
Shape & HBR
Unknown shape, 0.1 m
Radar Cross Section
Small (<0.1 m²)

Expand to show TLE details & history
Last TLE update: 1 day ago

TLE from 1 day ago
0 DELTA 1 DEB
1 07124U 73086CN  26121.80916220 -.00000029  00000-0  14482-3 0  9992
2 07124 102.4812 148.3230 0052740 346.4008 188.7930 12.30089651356081
Epoch: 2026-05-01T19:25Z
TLE epoch observation values (Epoch: 2026-05-01T19:25:11.614Z)
Latitude
4.70535°
Longitude
178.32741°
Altitude
1,592.253 km
Speed
7.055 km/s
True Right ascension
21h 57m 26s
True Declination
4° 40' 49"
Sunlit
Object was in daylight at epoch
Visualization orbit readout
Latitude
Unknown
Longitude
Unknown
Altitude
Unknown
Speed
Unknown
Apparent Right ascension
Unknown
Apparent Declination
Unknown
Sunlit
N/A
Visualization observer readout
Local Sidereal Time
10:20:58
Azimuth
Unknown
Elevation
Unknown
Doppler factor
Unknown
Orbital elements
Apogee altitude
1,588.307 km
Perigee altitude
1,504.718 km
Semi-major axis
7,924.65 km
Eccentricity
0.00527
Inclination
102.4812°
RAAN
148.323°
Arg. of periapsis
346.4008°
True anomaly
188.70121°
Mean anomaly
188.793°
Eccentric anomaly
188.74705°
Mean motion
3.07661 °/min
Orbital period
117.01 mins
BSTAR
0.00014482
Loading maneuver chart data...
Computing Atmospheric mass density...
Loading historical data...
Loading historical data...
Loading historical data...
Loading historical data...
Loading historical data...
Loading historical data...
Loading historical data...

Documentation

Showing up to 5 results
|